Retour au catalogue

STARLINK-35496

ActifCommunicationsVLEO
NORAD 66114·PAYLOAD·🇺🇸 United States

Lancé Oct 22, 2025 depuis Vandenberg Space Force Base

Loading…

Prochains Passages (prochaines 24 heures)

TLE

FraisSource: CelesTrak SupGP

Époque: Sep 14, 2026, 23:15 UTC

1 66114C 25237A   26257.96923611  .00019534  00000+0  57706-3 0  2572
2 66114  53.1572 237.2997 0001393  96.5054 291.0094 15.34384864    19

Suivez STARLINK-35496 en temps réel avec AllMySat

Download on the App Store